Погода в Веснове

Россия / Калининградская область     54°45′19″N   22°20′49″E
темп.,
°C
ветер,
м/с
пор.,
м/с
влажн.,
%
обл.,
%
осадки,
мм/ч
давл.,
гПа
погр.,
м
28 июля, ср
ср2823:00+18юз22931 0.3 101220
02:00+17зюз349577 0.3 101174
05:00+16зюз229386 0.0 101133
08:00+20зюз238260 0.0 1012250
11:00+25зюз346185 0.3 1011733
14:00+28зюз364445 0.5 10112311
17:00+25ююз225722 0.0 101090
20:00+23ююв336735 0.0 100834
29 июля, чт
чт2923:00+19ю359695 2.1 1009138
02:00+18зюз3997100 2.1 1009291
05:00+17зюз3798100 0.0 1009243
08:00+20з36835 0.0 1009389
11:00+25зюз47555 0.0 10091488
14:00+26зюз6944100 0.0 10082521
17:00+22зюз126551 0.0 1008128
20:00+18зсз358133 0.1 1008107
30 июля, пт
пт3023:00+16зюз12875 0.0 100927
02:00+14ююз349388 0.0 100962
05:00+14ююз4109420 0.2 1008241
08:00+18зюз6106197 0.2 1008499
11:00+22зюз7134610 0.0 10072014
14:00+22зюз61147100 0.0 10061968
17:00+23зюз7114356 0.0 10052554
20:00+18з35591 0.0 100577
31 июля, сб
сб3123:00+14юз36744 0.0 1006102
02:00+13юз498011 0.0 1007166
05:00+13ююз478297 0.0 1006111
08:00+19ююз4757100 0.0 1006341
11:00+25ююз5646100 0.0 10051045
14:00+24ю7956100 0.0 10041121
17:00+21зюз5876100 0.7 1003599
20:00+18зсз51082100 1.2 1004283
1 августа, вс
вс123:00+15юз34880 0.0 100550
02:00+13юз412860 0.0 1006213
05:00+13юз513821 0.0 1006335
08:00+18зюз610695 0.0 1006670
11:00+22зюз6857100 0.1 10071609
14:00+24з5742100 0.1 10072095
17:00+22сз3451100 0.0 10071104
20:00+19ссз2266100 0.0 100736